Regional Weather Roundup
Issued by NWS

Home | Current Version | Previous Version | Text Only | Print | Product List | Glossary On
Versions: 1 2 3 4 5 6 7 8 9 10 11 12 13 14 15 16 17 18 19 20 21 22 23 24 25 26 27 28 29 30 31 32 33 34 35 36 37 38 39 40 41 42 43 44 45 46 47 48 49 50
000
ASUS44 KOUN 280510
RWROK

WEATHER ROUNDUP FOR OKLAHOMA
NATIONAL WEATHER SERVICE NORMAN OK
1200 AM CDT SUN AUG 28 2016

NOTE: "FAIR" INDICATES FEW OR NO CLOUDS BELOW 12,000 FEET WITH NO
      SIGNIFICANT WEATHER AND/OR OBSTRUCTIONS TO VISIBILITY.

OKZ001>007-009>012-014-015-017-280600-
NORTHWEST OKLAHOMA AND THE PANHANDLE

CITY           SKY/WX    TMP DP  RH WIND       PRES   REMARKS
GAGE           CLOUDY    67  64  90 S8        30.08F
GUYMON         CLEAR     68  60  75 SE10      30.08F
ENID/WOODRING  CLOUDY    77  72  83 S5        30.04S
$$

OKZ016-021>023-033>039-044-045-280600-
SOUTHWEST OKLAHOMA

CITY           SKY/WX    TMP DP  RH WIND       PRES   REMARKS
LAWTON/REGL    PTCLDY    74  66  76 CALM      30.06R
LAWTON/FT SILL MOCLDY    71  69  93 NE1       30.05R
FREDERICK      CLOUDY    73  68  84 E5        30.03R
CLINTON        PTCLDY    71  61  70 SW3       30.13F
HOBART         MOCLDY    74  68  81 N8        30.11R
ALTUS AFB      PTCLDY    69  64  85 NE2       30.06R
$$

OKZ018>020-024>031-280600-
CENTRAL OKLAHOMA

CITY           SKY/WX    TMP DP  RH WIND       PRES   REMARKS
OKLAHOMA CITY  MOCLDY    75  70  84 S5        30.07R
OKC/WILEY POST CLOUDY    76  68  76 SW6       30.07R
OKC/TINKER AFB CLOUDY    76  68  74 SE8       30.06R
STILLWATER     MOCLDY    77  69  76 S5        30.05R
GUTHRIE        CLOUDY    79  69  71 SE6       30.06R
$$

OKZ008-013-054>072-280600-
NORTHEAST OKLAHOMA

CITY           SKY/WX    TMP DP  RH WIND       PRES   REMARKS
TULSA          PTCLDY    81  72  74 SE9       30.04R
TULSA/JONES    PTCLDY    80  74  81 S5        30.05R
PONCA CITY     PTCLDY    81  66  60 S8G16     30.04R
BARTLESVILLE   PTCLDY    77  69  76 S6        30.06R
MUSKOGEE       CLEAR     73  71  93 S5        30.06R
$$

OKZ032-040>043-046>053-073>077-280600-
SOUTH CENTRAL/SOUTHEAST OKLAHOMA

CITY           SKY/WX    TMP DP  RH WIND       PRES   REMARKS
ARDMORE/DWNTWN PTCLDY    77  68  73 CALM      30.05R
MCALESTER      CLEAR     76  71  85 E5        30.06R
$$




USA.gov is the U.S. government's official web portal to all federal, state and local government web resources and services.